Uncategorized

2022 Ratings – SEC Championship

Let’s get crankin’ on these League Week meets. Knocking out the meets with the highest number of runners means we first look at the XC hotbed in the Ann Arbor area.

Boys and Girls Adjustment: +28

SUPREMELY EXCELLENT CHAMPIONS

Zach Debeauclair, Pinckney: The Pirates move up the D2 leaderboards is mainly thanks to Ben Richards and his continued improvement. But don’t forget kids like Zach, equaling his Portage form with ANOTHER sub-16.

Stewart Berryhill, Saline: The seventh runner, a pusher, a displacer. Although the gap between the Hornets and Skyline was 12 points, every place counts, and when you can put your 7th ahead of another team’s 5th, that’s huge. Stewart’s been on a tear these last four races, all in the very low-17’s. Don’t be shocked that when the sub-17 comes, it’s far below that mark. You’ve gotta pay your dues with the 17:0x’s before the big one happens. Was just informed that he’s gone sub-17 before at River Rat, but not in athleticnet. Checked my own records, 16:56.4! But the point still stands, he’s getting in the 16:40s before the season ends.

Hana Boggess, Ann Arbor Pioneer: On a day where many athletes ran their season or lifetime best, a better point of comparison may be place. Hana was 49th at the first SEC Jamboree, 25th amongst all competitors here.

Sophy Skeels, Adrian: Jacob Tanner mentioned it in his team of the week feature, watch for the Maples to make a run in Region 18. Coming off her second consecutive top-10 finish in Lenawee County, Sophy blasted a major personal best today, running well into the 19’s. Adrian as a whole ran far above expectation, a great way to move into Regional Week.

GradeNameTimeTeamRating
11Connell Alford15:06.4Chelsea208.5
12Aiden Smith15:23.0Adrian203.0
11Evan Loughridge15:33.2Pinckney199.6
12Nicolas Fry15:40.1Ann Arbor Skyline197.3
12Samuel Jackson15:43.8Saline196.1
11Truman Johnson15:44.4Saline195.9
11Brandon Anderson15:45.4Dexter195.5
11Paul Moore15:49.0Pinckney194.3
12Zach Debeauclair15:50.8Pinckney193.7
9Moises Salazar15:52.2Adrian193.3
11Luke Suliman15:55.8Ann Arbor Skyline192.1
11Ethan Sandula15:56.0Pinckney192.0
11Mason Jett15:59.5Ann Arbor Skyline190.8
12Christopher Van Lent16:01.5Ann Arbor Skyline190.2
11Braylon Petty16:03.2Adrian189.6
12Jason Whitton16:07.6Saline188.1
12Luke Butler16:08.9Monroe187.7
12Bram Hartsuff16:12.4Chelsea186.5
11Vincent Peterson Sand16:16.4Ann Arbor Pioneer185.2
12Owen Ackerman16:21.6Dexter183.5
12Kyle Hoffner16:22.4Monroe183.2
12Zebedee Swager16:22.7Chelsea183.1
12Thomas Kerber16:24.8Ann Arbor Pioneer182.4
12Adam Bigelow16:29.6Ann Arbor Huron180.8
11Jackson Dell16:29.6Chelsea180.8
12Nick Spruce16:30.9Chelsea180.4
12Andrew McNally16:36.1Saline178.6
10Leo Swager16:36.9Chelsea178.4
12Roman Cortina16:37.0Ann Arbor Pioneer178.3
11Lucas Weintraub16:38.3Ann Arbor Huron177.9
12Ben Richards16:38.8Pinckney177.7
11Eric Overdier16:40.1Ann Arbor Pioneer177.3
12Andrew Grier16:43.1Ann Arbor Pioneer176.3
12Shane Pitcher16:46.9Saline175.0
12Ben Schefka16:50.3Adrian173.9
11Liam Bredeweg16:52.9Ann Arbor Pioneer173.0
12Thomas Lepper16:53.0Pinckney173.0
12Elijah Routson16:53.4Saline172.9
10Jonah Kraft16:56.8Ann Arbor Huron171.7
12Chase Klapthor16:58.3Ann Arbor Pioneer171.2
9Beckett Boos17:03.1Chelsea169.6
9Beckett Crooks17:03.5Ann Arbor Pioneer169.5
11Matthew Canales17:04.0Adrian169.3
10Zach Newman17:04.2Pinckney169.3
12Stewart Berryhill17:06.0Saline168.7
10Raymond Jenkins17:07.4Saline168.2
11Sam Gibson17:07.5Dexter168.2
12Dominik White17:09.1Saline167.6
12Andrew Strong17:10.6Saline167.1
10Landyn Soule17:11.9Adrian166.7
10Nicholas Balla17:12.2Temperance Bedford166.6
12Matt Dombrowski17:14.0Ann Arbor Pioneer166.0
11Koen Lanker17:16.4Saline165.2
11Gabe Bock17:17.0Temperance Bedford165.0
12Jake Eagling17:17.5Adrian164.8
9Quinn Davis17:17.6Ann Arbor Pioneer164.8
10Myles Bray17:18.6Monroe164.5
11Henry Beard17:19.3Ann Arbor Huron164.2
12Nathan Milliman17:21.6Ann Arbor Pioneer163.5
10Caleb Snyder17:22.1Dexter163.3
11Maxx Adams17:23.3Monroe162.9
9Theo Sacks-Thomas17:25.5Ann Arbor Pioneer162.2
11Andrew Foshag17:26.2Monroe161.9
10Julian Linebaugh17:28.1Dexter161.3
12Kaden Jensen17:28.3Dexter161.2
11Liam Newton17:28.4Saline161.2
9Dane Hieronimus17:28.5Temperance Bedford161.2
10Gabe Maciag17:29.3Pinckney160.9
11Ethan Umberger17:29.6Saline160.8
12Charlie Doan17:29.9Adrian160.7
10William Rosales17:30.9Saline160.4
10Palmer Ziemer17:31.0Tecumseh160.3
9Luke Dudash17:38.5Dexter157.8
12Rylan Teddy17:38.9Dexter157.7
12Ethan Kapolka17:39.1Chelsea157.6
10Kyle Osborne17:40.1Pinckney157.3
12Ethan Yesko17:40.6Saline157.1
10Braxon Lake17:40.7Temperance Bedford157.1
12Devin Saxon17:40.9Ann Arbor Huron157.1
10Aidan Ortiz17:41.0Temperance Bedford157.0
12Jack Zaske17:41.6Saline156.8
11Jackson Nyack17:42.7Adrian156.4
11Joey Stevenson17:44.5Ann Arbor Pioneer155.8
11Liam Ridenour17:44.7Ann Arbor Huron155.8
12Joshua Gagne17:47.9Temperance Bedford154.7
10Scott Smith17:48.4Dexter154.5
10Riley Smith17:50.7Adrian153.8
10Maceo Colon17:54.3Temperance Bedford152.6
9Zeke Lafferty17:55.5Ann Arbor Skyline152.2
12Owen Liepman17:56.3Saline151.9
12Mike Dombrowski17:56.8Ann Arbor Pioneer151.7
10Jacob Yeager17:58.0Temperance Bedford151.3
12Soren Nielsen17:58.9Ann Arbor Skyline151.0
12Daniel Rhoades17:59.2Monroe150.9
12Gavin Burt17:59.3Saline150.9
11Grant Fahle17:59.9Tecumseh150.7
9Wyatt Larson18:00.6Pinckney150.5
12Ismael SanAntonio18:01.5Ann Arbor Pioneer150.2
12Colten Lumadue18:02.0Pinckney150.0
11Aaron Sterken18:03.0Ann Arbor Pioneer149.7
9Karl Swager18:03.6Chelsea149.5
10Jordan Bunce18:04.3Temperance Bedford149.2
12Eric VonBargen18:04.9Ann Arbor Skyline149.0
9Linus Helzerman18:05.7Chelsea148.8
9Jamal (Max) Samaha18:06.9Ann Arbor Huron148.4
9Thomas (TJ) Conley18:09.0Ann Arbor Huron147.7
12Aidan Behmer18:09.1Ann Arbor Huron147.6
12Andrew England18:11.2Jackson147.0
11Wyatt Hockley18:11.4Ann Arbor Pioneer146.9
12Henry LiPuma18:12.6Ann Arbor Pioneer146.5
11Charlie Munson18:13.4Dexter146.2
11Mo Cugliari18:14.5Chelsea145.8
12Kirilo Pereklita18:18.7Ann Arbor Huron144.4
12Nicolas Jiang18:20.8Ann Arbor Huron143.7
9Bruno Cifaldi18:22.0Ann Arbor Skyline143.3
11Harold Crowner18:24.2Saline142.6
11Jack Durivage18:24.7Temperance Bedford142.4
11Braiden Welch18:24.8Temperance Bedford142.4
11Julian Snelling18:25.4Ann Arbor Pioneer142.2
11Aldus Yun18:26.0Ann Arbor Pioneer142.0
9Ryan Boenke18:28.4Ann Arbor Pioneer141.2
10Saman Meshinchi18:29.0Saline141.0
10Owen Strieter-Byron18:29.0Tecumseh141.0
10Kaleb Dekoeyer18:31.7Temperance Bedford140.1
11Will Kletzka18:31.9Dexter140.0
10Collin Eckermann18:32.0Saline140.0
11Chris Stein18:32.3Monroe139.9
12Colin Alexander18:32.7Saline139.8
9AJ Smith18:39.0Chelsea137.7
10Thomas Endres18:39.2Saline137.6
10Tyler Condon18:40.0Adrian137.3
11Ben Botkin18:41.4Ann Arbor Pioneer136.9
11Joaquin Moore18:42.1Ann Arbor Huron136.6
10Amon Nagase18:42.9Ann Arbor Pioneer136.4
10Matthew McGill18:44.1Dexter136.0
11Ewan Lemens18:44.3Ann Arbor Pioneer135.9
9Jack Fahlgren18:44.5Ann Arbor Pioneer135.8
11Chase Nyack18:46.2Adrian135.3
10Reggie Geftos18:47.0Monroe135.0
12Gregor Morton18:47.8Saline134.7
11Owen Nesbit18:48.2Ann Arbor Pioneer134.6
11Carter Verkerk18:48.2Saline134.6
9Sam Price18:48.7Ann Arbor Pioneer134.4
12Andrew Rowe18:49.0Tecumseh134.3
11Elisha Correll18:49.7Jackson134.1
9Nate Sandula18:50.2Pinckney133.9
11Paul Minock18:50.9Ann Arbor Skyline133.7
11Evan Marsee18:51.2Ann Arbor Pioneer133.6
9Parker Bomia-Laberdee18:51.8Monroe133.4
9Alex Martin18:52.4Chelsea133.2
12Anthony Kruszka18:54.7Temperance Bedford132.4
9Mason Liepman18:55.8Saline132.1
10Max Marten18:59.0Tecumseh131.0
11Blake Mahler18:59.1Saline131.0
11Marshall Peacock18:59.7Tecumseh130.8
11Roman Bonfiglio19:00.1Saline130.6
9Bryson White19:00.3Jackson130.6
10Landon Whitehead19:01.4Dexter130.2
11Carter Hill19:02.3Dexter129.9
9Nolan Brescol19:02.8Temperance Bedford129.7
11Cameron Sindlinger19:05.8Ypsilanti Lincoln128.7
12Gabe Muckle19:07.8Chelsea128.1
10Joe Dunlap19:09.1Pinckney127.7
11Varun Yalavarthi19:10.6Ann Arbor Huron127.1
12Landon Wilson19:10.9Dexter127.0
12Zack Hildebrandt19:12.0Ann Arbor Huron126.7
9Joshua Riggs19:12.0Monroe126.7
11Jacob Cruz19:14.1Ann Arbor Pioneer126.0
10Jordan Marsh19:14.2Saline125.9
11Grayson Albers19:15.5Ypsilanti Lincoln125.5
9Andrew Hagerty19:16.2Pinckney125.3
10Jack Robichaud19:18.6Ann Arbor Skyline124.5
11Ethan Thomas19:24.0Temperance Bedford122.7
11Johnathan Ball19:26.5Temperance Bedford121.9
9Anthony Kraus19:27.5Temperance Bedford121.5
9D’Angelo Lucarelli19:28.2Temperance Bedford121.3
11Nicholas Bennett19:30.0Saline120.7
9Quinn Hudson19:30.8Temperance Bedford120.4
9Kasen Salazar19:31.3Dexter120.2
9London Rising19:32.2Adrian119.9
9Kajus Kazlauskas19:33.0Saline119.7
9Mason Maley19:34.4Chelsea119.2
10Rex Bajcz19:35.0Ann Arbor Pioneer119.0
9Dylan Mineweaser19:35.3Jackson118.9
10Luke Ankeney19:36.6Ann Arbor Pioneer118.5
10Eric Cameron19:38.2Chelsea117.9
9Gustaf Finn19:38.6Ann Arbor Skyline117.8
9Kyle Krasnan19:39.1Ann Arbor Skyline117.6
9Oliver McGee19:39.9Ann Arbor Huron117.4
9Fletcher Campbell19:41.4Ann Arbor Pioneer116.9
10Ashe Baskey19:44.3Ann Arbor Huron115.9
10Brant Maley19:44.8Chelsea115.7
10Parker Razelun19:45.5Ann Arbor Skyline115.5
10Jonas Enriquez19:45.8Temperance Bedford115.4
12Aiden Burke19:49.4Saline114.2
11Jack Burin19:52.6Dexter113.1
10Blake Cabble19:53.7Dexter112.8
11Victor Heskia19:57.1Ann Arbor Huron111.6
12Sean Kavanaugh19:57.9Saline111.4
10James Minelli19:59.7Dexter110.8
10Noah McKinley20:01.7Ypsilanti Community110.1
9Tate Woodman20:02.1Saline110.0
11Matthew Roehm20:02.1Saline110.0
10Patrick (PJ) Carty20:05.4Dexter108.9
12Jett Roles20:05.8Saline108.7
9Hayden Mondeville20:07.6Pinckney108.1
10Malaki Muhammud20:08.3Ypsilanti Community107.9
9Hayden Helms20:09.4Ann Arbor Pioneer107.5
12Andrew Harms20:09.8Chelsea107.4
10Levi Whitehead20:10.6Dexter107.1
12Landon Bush20:12.4Saline106.6
12Nathan Robke20:13.0Dexter106.3
11Adrik Ruch20:14.2Temperance Bedford105.9
11Isaac Gardner20:15.1Ann Arbor Huron105.6
12John Muckle20:16.1Chelsea105.3
9Francisco (Xisco) Dura20:16.6Ann Arbor Huron105.1
10Spencer Wood20:17.3Ann Arbor Huron104.9
9Parker Carrell20:18.4Saline104.5
9Sebastian Bagley20:21.0Ann Arbor Pioneer103.7
10Andrew Irgang20:25.0Saline102.3
10Ben Nichols20:26.2Jackson101.9
9Maximus Walker20:36.5Tecumseh98.5
11Yuma Tsubouchi20:37.4Dexter98.2
11Luke Lindsay20:37.5Monroe98.2
11Adam Norden20:39.7Tecumseh97.4
10Bryce Bales20:41.7Dexter96.8
10Davion Garrison20:45.9Chelsea95.4
9Zorowar(Joey) Brar20:47.5Ann Arbor Huron94.8
12Michael Maloy20:47.6Saline94.8
12Gael Borges20:49.8Ann Arbor Huron94.1
10Micah Winchell20:51.6Ann Arbor Skyline93.5
9Lalo Garskof20:54.1Ann Arbor Pioneer92.6
9Trent Yeager20:56.0Temperance Bedford92.0
12Eli Miller20:57.6Tecumseh91.5
10Ryan Friedholm20:58.9Saline91.0
11Nathan Gillespie20:59.3Temperance Bedford90.9
10Haven Stanton21:02.0Saline90.0
12Lucca Rossini21:03.6Chelsea89.5
11Bryce Robinson21:04.4Pinckney89.2
10Archie Patterson21:05.3Saline88.9
10Logan Kipley21:05.7Saline88.8
11Noah Brown21:06.6Saline88.5
11Chris Coffer21:07.0Dexter88.3
9Jaden Zellinger21:09.1Pinckney87.6
9Marlowe Hartnett21:09.3Ann Arbor Skyline87.6
10Aidan Petik21:12.9Dexter86.4
10Loki Bowser21:20.0Ann Arbor Skyline84.0
11Aidan Gadepalli21:21.4Ann Arbor Huron83.5
10Robert Pandolfi21:27.8Ann Arbor Pioneer81.4
11Cameron Russell21:30.1Ann Arbor Pioneer80.6
11Alden Grob21:30.7Ann Arbor Skyline80.4
12Owen Mineweaser21:31.2Jackson80.3
10Marty Watson21:34.2Dexter79.3
9Kyle Davey21:35.4Ann Arbor Huron78.9
11Andrew Wehr21:35.7Saline78.8
9Sihun You21:43.7Ann Arbor Pioneer76.1
10Marcus Silva21:48.7Dexter74.4
11Aidan Sutherland21:48.7Saline74.4
10Hajune Kim21:52.5Ann Arbor Huron73.2
9Dominic Durkacs21:52.7Ann Arbor Huron73.1
10Josh Cotts21:52.9Ann Arbor Pioneer73.0
9Michael Wu22:00.0Ann Arbor Pioneer70.7
10Adrian Sieh22:10.6Saline67.1
10Alex Watson22:25.1Dexter62.3
12Mason Grann22:26.2Dexter61.9
12Yuri Carnino22:33.4Saline59.5
Jin Hoe22:37.5Ann Arbor Pioneer58.2
9Rokas Kazlaukas22:47.4Saline54.9
10Xingzhi(Tom) Tan22:54.0Ann Arbor Huron52.7
9Jacob Alt22:58.1Ypsilanti Community51.3
11Adison Din23:05.8Dexter48.7
10Will Weiszhaar23:06.2Dexter48.6
9Camilo Ojeda23:28.1Ann Arbor Huron41.3
10Wesley Jenkins23:56.5Ann Arbor Skyline31.8
11Jaxson Cicotte24:17.2Dexter24.9
9Derek Crum24:18.3Monroe24.6
12Logan Cole24:23.0Ann Arbor Huron23.0
10Jacob Gilbert24:39.7Dexter17.4
9Scott Sheehy24:51.5Monroe13.5
9Devon Amos24:55.2Pinckney12.3
10Kendan Yue25:19.0Ann Arbor Huron4.3

GradeNameTimeTeamRating
12Emily Cooper18:14.5Ann Arbor Pioneer145.8
11Rachel Forsyth18:25.0Ann Arbor Pioneer142.4
10Alena Blumberg18:28.2Dexter141.3
12Mia Rogan18:33.8Saline139.4
11Natalie Mello18:35.8Ann Arbor Pioneer138.7
11Laney Alig18:43.5Saline136.2
10Annabel O’Haver18:53.1Dexter133.0
11Sylvia Sanok Dufallo18:54.2Ann Arbor Pioneer132.6
10Corynn Gady19:00.8Saline130.4
12Leah White19:01.1Ann Arbor Skyline130.3
12Rebekah Asselin19:05.0Temperance Bedford129.0
12Caroline Vance19:06.8Ann Arbor Skyline128.4
11Allison Mayer19:09.8Ann Arbor Skyline127.4
11Viktoria Bloniarz19:13.4Monroe126.2
9Quincy Behm19:17.9Ann Arbor Pioneer124.7
10Sienna Snyder19:18.3Saline124.6
10Grace Roth19:19.5Saline124.2
10Sophy Skeels19:19.8Adrian124.1
10Natalia DeMea19:21.8Chelsea123.4
12Kaylee Pesta19:22.7Tecumseh123.1
12Natalie Kessler19:30.8Ann Arbor Skyline120.4
11Anastee Davis19:31.4Adrian120.2
11Yoselin Fermin-Campos19:34.4Adrian119.2
10Lucinda Paliani19:40.7Ann Arbor Huron117.1
9Hana Boggess19:42.1Ann Arbor Pioneer116.6
9Lilly Schlack19:45.3Saline115.6
10Addison Bruckman19:47.0Dexter115.0
9Leena Shelgikar19:48.0Ann Arbor Huron114.7
10Abby Roth19:50.5Saline113.8
10Madison Morris19:55.1Tecumseh112.3
9Sam Bieber19:57.6Chelsea111.5
10Madison Rogan20:09.2Saline107.6
12Katie Fischer20:13.6Adrian106.1
11Kate Varitek20:15.4Dexter105.5
10Ayla Balazer20:15.7Ann Arbor Skyline105.4
12Lydia Cocciolone20:15.8Ann Arbor Skyline105.4
12Antonia Bruckman20:19.2Dexter104.3
11Diane Weber20:20.1Ypsilanti Community104.0
12Mya Orner20:24.3Temperance Bedford102.6
11Bailey Burt20:25.1Saline102.3
11Sonya Shelgikar20:25.8Ann Arbor Huron102.1
12Emily Stevenson20:26.7Tecumseh101.8
10Madalynn Karsies20:32.0Pinckney100.0
11Lydia Bowman20:32.5Ann Arbor Pioneer99.8
9Jillian Hayes20:32.5Saline99.8
12Morgan Kay20:33.3Monroe99.6
12Brooke Matusik20:34.2Chelsea99.3
9Mavee Clark20:35.0Adrian99.0
10Lauren Thompson20:35.8Chelsea98.7
10Mackenzie Sellenraad20:38.8Saline97.7
11Seren Angus20:38.8Chelsea97.7
12Annalisa DeGuzman20:39.5Ann Arbor Skyline97.5
11Nancy Gage20:40.0Saline97.3
12Emma Abbott20:43.6Tecumseh96.1
12Allison Nutt20:46.4Ann Arbor Pioneer95.2
10Grace Oberski20:49.3Saline94.3
10Olivia Shaieb20:51.5Dexter93.5
10Jessica Warren20:52.1Tecumseh93.3
11Trilian Krug20:52.9Chelsea93.0
10Lizzie Thibeault20:56.7Saline91.8
12Emma Bushroe20:57.0Temperance Bedford91.7
11Sarah Conley20:57.7Ann Arbor Huron91.4
10Addison Streetman21:02.2Dexter89.9
10Lucy Pike21:05.8Ann Arbor Pioneer88.7
12Julia Kause21:08.2Chelsea87.9
10Aiko Motohara21:09.4Ann Arbor Huron87.5
12Emily Ma21:13.4Ann Arbor Huron86.2
9Chloe Wanner21:13.5Temperance Bedford86.2
9Anna Coury21:15.2Monroe85.6
12Royce Smith21:19.2Ann Arbor Huron84.3
12Monica Ristich21:19.6Ann Arbor Pioneer84.1
9Hannah Bougher21:20.6Dexter83.8
11Celia Begosso21:22.7Ann Arbor Skyline83.1
10Carrie Schwartz21:25.4Saline82.2
9Amelia Cribbins21:27.4Dexter81.5
9Claire Cousineau21:29.8Tecumseh80.7
12Mia Solomon21:31.3Ann Arbor Huron80.2
9Avery Hoeft21:32.8Dexter79.7
12Madeline Hood21:33.1Ann Arbor Pioneer79.6
10Clara Peikert21:34.4Ann Arbor Pioneer79.2
11Rebecca Rummel21:34.9Saline79.0
9Corinna Aulph21:37.8Monroe78.1
10Katelynn Reading21:46.4Saline75.2
9Aubrey Miscikowski21:52.7Temperance Bedford73.1
10Sala Motohara21:53.9Ann Arbor Huron72.7
10Kailyn Austin21:54.4Saline72.5
10Kylie Warner21:54.7Saline72.4
9Grace Brown21:55.0Jackson72.3
12Naomi Kaczor21:55.2Ann Arbor Pioneer72.3
9Aspen Taylor21:56.4Dexter71.9
9Grace Hopkins21:56.6Ann Arbor Skyline71.8
10Reese Oberski21:58.5Temperance Bedford71.2
10Rhya Wright22:02.9Dexter69.7
12Samantha Sexton22:06.5Temperance Bedford68.5
11Aileen Bachrans22:09.4Ann Arbor Skyline67.5
10Rachel Sprauer22:12.7Ann Arbor Pioneer66.4
9Riley Provost22:13.5Saline66.2
9Maya Muenzer22:17.8Temperance Bedford64.7
12Kelsey Knape22:19.6Tecumseh64.1
9Aurora Janevic22:20.1Ann Arbor Pioneer64.0
10Olivia Szczepanik22:20.6Temperance Bedford63.8
12Elizabeth Beck22:25.1Ann Arbor Skyline62.3
11Neva Rognes22:30.7Saline60.4
9Ayla Stager22:32.4Saline59.9
11Clara Fedenberg22:35.0Chelsea59.0
10Mara McClellan22:35.4Saline58.9
11Alexandria Mason22:36.8Ann Arbor Skyline58.4
11Anneliese Jones22:37.2Ann Arbor Pioneer58.3
11Samantha Dark22:37.7Chelsea58.1
9Grace Fredericks22:39.1Temperance Bedford57.6
11Allisyn Pagel22:40.3Adrian57.3
10Jasmine Boggy22:42.4Ann Arbor Pioneer56.5
10Isabella Morris22:42.5Adrian56.5
9Zeva Hathaway22:43.4Pinckney56.2
9Adrienne Stewart22:46.4Ann Arbor Skyline55.2
12Livianna Mattila22:47.6Pinckney54.8
12Grace Finley22:48.4Monroe54.5
11Serena O’Brien22:48.4Ann Arbor Skyline54.5
12Valerie Oz22:49.9Temperance Bedford54.0
12Sydney Dec22:54.6Temperance Bedford52.5
9Mireille Hunter22:54.8Chelsea52.4
11Tessa Meyers22:55.5Saline52.2
12Kiera Tuttle22:59.9Saline50.7
9Kennedy Matson23:01.5Dexter50.2
10Alexandra Butler23:01.6Monroe50.1
10Christina Hurtado Marin23:03.8Chelsea49.4
11Stella Niemi23:06.4Dexter48.5
12Audra Guthre23:07.4Chelsea48.2
11Madelyn Hagerty23:07.6Pinckney48.1
11Ally Pitcher23:09.1Monroe47.6
9Tanishka Tewari23:09.7Ann Arbor Huron47.4
9Julianna Bailey23:12.7Ann Arbor Skyline46.4
10Kaitlin Kubicki23:14.3Chelsea45.9
9Bridget Kerber23:17.7Ann Arbor Pioneer44.8
11Brianna Wheaton23:18.2Pinckney44.6
11Megan Bell23:19.6Ann Arbor Pioneer44.1
10Alyssa Cowan23:21.3Monroe43.6
10Baneen Al-Heleal23:23.6Ypsilanti Community42.8
12Maya Hitchingham23:28.0Jackson41.3
9Hattie Pok23:29.2Ann Arbor Pioneer40.9
9Rylee Lahring23:31.9Adrian40.0
12Anne Kleber23:33.8Dexter39.4
9Lissa Krueger23:37.7Chelsea38.1
11Cyprus Gabriel-Menegay23:39.4Chelsea37.5
11Zita Lucarelli23:41.3Temperance Bedford36.9
12Julia Mei23:42.3Ann Arbor Skyline36.6
10Allysa Kelly23:42.7Temperance Bedford36.4
11Cecelia Brush23:43.4Ann Arbor Skyline36.2
10Chelsea Johnson23:44.4Temperance Bedford35.9
12Margriet Poppens23:45.0Ann Arbor Pioneer35.7
9Ruthie Bonfiglio23:47.3Saline34.9
11Miriam Rick23:47.7Tecumseh34.8
11Hannah Hopkins23:48.3Ann Arbor Skyline34.6
12Noel Nelson23:51.3Adrian33.6
12Quinn Hilla23:51.4Dexter33.5
11Elle Nowak23:55.9Tecumseh32.0
12Mistika Young23:59.2Adrian30.9
9Rose Hashikawa24:13.0Dexter26.4
10Addison Robke24:13.6Dexter26.1
10Jiliang Koeppe24:15.0Tecumseh25.7
10Janah Byrne24:15.3Temperance Bedford25.6
12Francesca Cappuccio24:19.8Tecumseh24.1
10Alexandra Wren24:23.5Ann Arbor Skyline22.9
10Hadley Feyen24:24.2Ann Arbor Pioneer22.6
9Aurora Welling24:31.5Chelsea20.2
9Ivy Miller24:35.4Ann Arbor Skyline18.9
10Karris Lollar24:43.6Saline16.1
10Arianna Haaser24:46.7Temperance Bedford15.1
10Delaney Mays24:55.5Pinckney12.2
11Saloni Joshi24:57.5Monroe11.5
10Vera Naines24:58.5Ann Arbor Skyline11.2
9Ola Rominski25:00.4Ann Arbor Pioneer10.5
12Maryanna Fredenberg25:03.5Chelsea9.5
10Bella Watterson25:13.5Temperance Bedford6.2
11Avery Atkins25:17.1Saline5.0
11Karissa Halter25:25.1Temperance Bedford2.3
9Kennedy Lange25:26.2Saline1.9

Leave a Reply

Fill in your details below or click an icon to log in:

WordPress.com Logo

You are commenting using your WordPress.com account. Log Out /  Change )

Twitter picture

You are commenting using your Twitter account. Log Out /  Change )

Facebook photo

You are commenting using your Facebook account. Log Out /  Change )

Connecting to %s